Tracking 27423 objects as of 8-Jun-2023
HD Live streaming from Space Station
objects crossing your sky now

STARLINK-4738

Track STARLINK-4738 now!
10-day predictions
STARLINK-4738 is classified as:


NORAD ID: 53819
Int'l Code: 2022-114B
Perigee: 546.1 km
Apogee: 547.7 km
Inclination: 53.2 °
Period: 95.4 minutes
Semi major axis: 6917 km
RCS: Unknown
Launch date: September 19, 2022
Source: United States (US)
Launch site: AIR FORCE EASTERN TEST RANGE (AFETR)
Your satellite tracking list
Your tracking list is empty




NASA's NSSDC Master Catalog

Two Line Element Set (TLE):
1 53819U 22114B   23159.33076097  .00000411  00000-0  43923-4 0  9992
2 53819  53.2150 137.5414 0001101  84.3319 275.7799 15.08836816 41052
Source of the keplerian elements: AFSPC